Wetterdaten: Montag, 27.10.2014
Datum Zeit Temp. A. Mod.Schuppen Waschkche Feuchte A. Luftdruck Regen Wind Richtung Richtung Sonnenschein Helligkeit Solar
27.10.2014 00:05 11,8 C 10,8 C 13,9 C 81 % 1024,0 hPa 0,0 l/m 6,1 km/h (2 Bft) S-SO22.5 165 0 min 0 lux 0 W/m
27.10.2014 00:09 11,8 C 10,9 C 13,9 C 80 % 1024,0 hPa 0,0 l/m 9,6 km/h (2 Bft) S-SO22.5 150 0 min 0 lux 0 W/m
27.10.2014 00:14 11,9 C 11,0 C 13,9 C 80 % 1024,0 hPa 0,0 l/m 8,7 km/h (2 Bft) S-SO22.5 155 0 min 0 lux 0 W/m
27.10.2014 00:19 11,9 C 11,0 C 13,9 C 80 % 1024,0 hPa 0,0 l/m 10,6 km/h (2 Bft) S-SO67.5 150 0 min 0 lux 0 W/m
27.10.2014 00:24 11,9 C 10,9 C 13,9 C 80 % 1024,0 hPa 0,0 l/m 1,3 km/h (1 Bft) S-SO22.5 160 0 min 0 lux 0 W/m
27.10.2014 00:29 11,9 C 10,9 C 13,9 C 81 % 1024,0 hPa 0,0 l/m 0,3 km/h (0 Bft) S-SO22.5 150 0 min 0 lux 0 W/m
27.10.2014 00:35 11,9 C 10,9 C 13,9 C 81 % 1024,0 hPa 0,0 l/m 7,2 km/h (2 Bft) S-SO22.5 150 0 min 0 lux 0 W/m
27.10.2014 00:39 11,9 C 10,9 C 13,9 C 81 % 1024,0 hPa 0,0 l/m 7,2 km/h (2 Bft) S-SO22.5 150 0 min 0 lux 0 W/m
27.10.2014 00:44 11,9 C 11,0 C 13,9 C 81 % 1024,0 hPa 0,0 l/m 11,2 km/h (2 Bft) S-SO22.5 160 0 min 0 lux 0 W/m
27.10.2014 00:49 11,9 C 11,0 C 13,9 C 81 % 1024,0 hPa 0,0 l/m 11,2 km/h (2 Bft) S-SO22.5 160 0 min 0 lux 0 W/m
27.10.2014 00:54 11,9 C 11,1 C 13,9 C 81 % 1024,0 hPa 0,0 l/m 8,1 km/h (2 Bft) S-SO22.5 155 0 min 0 lux 0 W/m
27.10.2014 00:59 11,9 C 11,1 C 13,9 C 81 % 1024,0 hPa 0,0 l/m 9,6 km/h (2 Bft) S-SO22.5 150 0 min 0 lux 0 W/m
27.10.2014 01:05 11,9 C 11,2 C 13,9 C 81 % 1024,0 hPa 0,0 l/m 9,6 km/h (2 Bft) S-SO22.5 150 0 min 0 lux 0 W/m
27.10.2014 01:09 11,9 C 11,3 C 13,9 C 81 % 1024,0 hPa 0,0 l/m 10,5 km/h (2 Bft) S-SO22.5 155 0 min 0 lux 0 W/m
27.10.2014 01:14 11,9 C 11,3 C 13,9 C 81 % 1024,0 hPa 0,0 l/m 4,5 km/h (1 Bft) S-SO45 165 0 min 0 lux 0 W/m
27.10.2014 01:19 12,0 C 11,3 C 13,9 C 81 % 1024,0 hPa 0,0 l/m 4,8 km/h (1 Bft) S-SO22.5 160 0 min 0 lux 0 W/m
27.10.2014 01:24 12,0 C 11,3 C 13,9 C 81 % 1024,0 hPa 0,0 l/m 0,3 km/h (0 Bft) S-SO 160 0 min 0 lux 0 W/m
27.10.2014 01:29 12,0 C 11,3 C 13,9 C 81 % 1024,0 hPa 0,0 l/m 8,8 km/h (2 Bft) S-SO22.5 160 0 min 0 lux 0 W/m
27.10.2014 01:35 12,0 C 11,3 C 13,9 C 81 % 1024,0 hPa 0,0 l/m 8,8 km/h (2 Bft) S-SO22.5 160 0 min 0 lux 0 W/m
27.10.2014 01:40 12,0 C 11,3 C 13,9 C 81 % 1024,0 hPa 0,0 l/m 8,3 km/h (2 Bft) S22.5 175 0 min 0 lux 0 W/m
27.10.2014 01:44 11,9 C 11,3 C 13,9 C 81 % 1024,0 hPa 0,0 l/m 2,0 km/h (1 Bft) SO45 140 0 min 0 lux 0 W/m
27.10.2014 01:49 12,0 C 11,3 C 13,9 C 81 % 1024,0 hPa 0,0 l/m 7,0 km/h (2 Bft) S45 170 0 min 0 lux 0 W/m
27.10.2014 01:54 11,9 C 11,3 C 13,9 C 81 % 1024,0 hPa 0,0 l/m 5,2 km/h (1 Bft) SO22.5 145 0 min 0 lux 0 W/m
27.10.2014 01:59 11,9 C 11,2 C 13,9 C 81 % 1024,0 hPa 0,0 l/m 1,0 km/h (0 Bft) S-SO 150 0 min 0 lux 0 W/m
27.10.2014 02:05 11,9 C 11,2 C 13,9 C 81 % 1024,0 hPa 0,0 l/m 7,6 km/h (2 Bft) S-SO 160 0 min 0 lux 0 W/m
27.10.2014 02:10 11,9 C 11,2 C 13,9 C 81 % 1024,0 hPa 0,0 l/m 12,1 km/h (2 Bft) S-SO22.5 160 0 min 0 lux 0 W/m
27.10.2014 02:14 11,9 C 11,2 C 13,9 C 81 % 1024,0 hPa 0,0 l/m 9,3 km/h (2 Bft) S-SO22.5 160 0 min 0 lux 0 W/m
27.10.2014 02:19 11,9 C 11,2 C 13,9 C 81 % 1024,0 hPa 0,0 l/m 5,8 km/h (2 Bft) S-SO22.5 150 0 min 0 lux 0 W/m
27.10.2014 02:24 11,9 C 11,1 C 13,9 C 81 % 1024,0 hPa 0,0 l/m 8,9 km/h (2 Bft) S-SO22.5 150 0 min 0 lux 0 W/m
27.10.2014 02:29 11,9 C 11,0 C 13,8 C 81 % 1024,0 hPa 0,0 l/m 3,0 km/h (1 Bft) SO45 145 0 min 0 lux 0 W/m
27.10.2014 02:34 11,9 C 11,0 C 13,9 C 81 % 1024,0 hPa 0,0 l/m 8,1 km/h (2 Bft) S-SO22.5 160 0 min 0 lux 0 W/m
27.10.2014 02:39 11,8 C 11,0 C 13,9 C 81 % 1024,0 hPa 0,0 l/m 7,9 km/h (2 Bft) S-SO22.5 155 0 min 0 lux 0 W/m
27.10.2014 02:45 11,9 C 11,0 C 13,9 C 81 % 1024,0 hPa 0,0 l/m 12,5 km/h (2 Bft) S-SO22.5 150 0 min 0 lux 0 W/m
27.10.2014 02:50 11,8 C 11,0 C 13,9 C 81 % 1024,0 hPa 0,0 l/m 10,0 km/h (2 Bft) S-SO22.5 155 0 min 0 lux 0 W/m
27.10.2014 02:54 11,8 C 11,0 C 13,9 C 81 % 1024,0 hPa 0,0 l/m 11,3 km/h (2 Bft) S-SO22.5 155 0 min 0 lux 0 W/m
27.10.2014 02:59 11,8 C 11,0 C 13,9 C 81 % 1024,0 hPa 0,0 l/m 10,3 km/h (2 Bft) S-SO22.5 150 0 min 0 lux 0 W/m
27.10.2014 03:04 11,8 C 11,0 C 13,8 C 81 % 1024,0 hPa 0,0 l/m 9,0 km/h (2 Bft) S-SO45 150 0 min 0 lux 0 W/m
27.10.2014 03:10 11,8 C 11,0 C 13,8 C 81 % 1024,0 hPa 0,0 l/m 6,3 km/h (2 Bft) S-SO22.5 155 0 min 0 lux 0 W/m
27.10.2014 03:15 11,8 C 11,0 C 13,9 C 81 % 1024,0 hPa 0,0 l/m 10,4 km/h (2 Bft) S-SO22.5 155 0 min 0 lux 0 W/m
27.10.2014 03:19 11,8 C 11,0 C 13,9 C 81 % 1024,0 hPa 0,0 l/m 10,4 km/h (2 Bft) S-SO22.5 155 0 min 0 lux 0 W/m
27.10.2014 03:24 11,8 C 11,0 C 13,8 C 81 % 1024,0 hPa 0,0 l/m 6,8 km/h (2 Bft) S-SO22.5 160 0 min 0 lux 0 W/m
27.10.2014 03:29 11,8 C 10,9 C 13,8 C 81 % 1024,0 hPa 0,0 l/m 10,6 km/h (2 Bft) S-SO22.5 160 0 min 0 lux 0 W/m
27.10.2014 03:34 11,7 C 11,0 C 13,8 C 81 % 1024,0 hPa 0,0 l/m 6,9 km/h (2 Bft) S-SO22.5 155 0 min 0 lux 0 W/m
27.10.2014 03:39 11,7 C 10,9 C 13,8 C 81 % 1024,0 hPa 0,0 l/m 10,5 km/h (2 Bft) S-SO22.5 155 0 min 0 lux 0 W/m
27.10.2014 03:45 11,7 C 10,9 C 13,8 C 81 % 1024,0 hPa 0,0 l/m 8,1 km/h (2 Bft) S-SO45 160 0 min 0 lux 0 W/m
27.10.2014 03:44 11,7 C 10,9 C 13,8 C 81 % 1024,0 hPa 0,0 l/m 8,1 km/h (2 Bft) S-SO45 160 0 min 0 lux 0 W/m
27.10.2014 03:50 11,7 C 10,9 C 13,8 C 81 % 1024,0 hPa 0,0 l/m 10,6 km/h (2 Bft) S-SO45 160 0 min 0 lux 0 W/m
27.10.2014 03:55 11,7 C 10,9 C 13,8 C 81 % 1024,0 hPa 0,0 l/m 10,6 km/h (2 Bft) S-SO22.5 160 0 min 0 lux 0 W/m
27.10.2014 03:59 11,7 C 10,9 C 13,8 C 81 % 1024,0 hPa 0,0 l/m 10,5 km/h (2 Bft) S-SO45 155 0 min 0 lux 0 W/m
27.10.2014 04:04 11,7 C 10,9 C 13,8 C 81 % 1024,0 hPa 0,0 l/m 12,3 km/h (2 Bft) S-SO45 160 0 min 0 lux 0 W/m
27.10.2014 04:09 11,7 C 10,9 C 13,8 C 82 % 1024,0 hPa 0,0 l/m 7,6 km/h (2 Bft) S-SO22.5 150 0 min 0 lux 0 W/m
27.10.2014 04:14 11,7 C 10,9 C 13,8 C 82 % 1024,0 hPa 0,0 l/m 7,6 km/h (2 Bft) S-SO22.5 150 0 min 0 lux 0 W/m
27.10.2014 04:20 11,7 C 10,8 C 13,8 C 82 % 1024,0 hPa 0,0 l/m 10,4 km/h (2 Bft) S-SO45 160 0 min 0 lux 0 W/m
27.10.2014 04:24 11,7 C 10,8 C 13,8 C 82 % 1024,0 hPa 0,0 l/m 6,5 km/h (2 Bft) S-SO22.5 150 0 min 0 lux 0 W/m
27.10.2014 04:29 11,7 C 10,8 C 13,8 C 82 % 1024,0 hPa 0,0 l/m 10,8 km/h (2 Bft) S-SO45 150 0 min 0 lux 0 W/m
27.10.2014 04:34 11,6 C 10,7 C 13,8 C 82 % 1024,0 hPa 0,0 l/m 8,2 km/h (2 Bft) S-SO22.5 150 0 min 0 lux 0 W/m
27.10.2014 04:39 11,6 C 10,5 C 13,8 C 82 % 1024,0 hPa 0,0 l/m 8,2 km/h (2 Bft) S-SO22.5 150 0 min 0 lux 0 W/m
27.10.2014 04:44 11,6 C 10,4 C 13,8 C 82 % 1024,0 hPa 0,0 l/m 10,5 km/h (2 Bft) S-SO22.5 155 0 min 0 lux 0 W/m
27.10.2014 04:50 11,6 C 10,3 C 13,8 C 82 % 1024,0 hPa 0,0 l/m 8,1 km/h (2 Bft) S-SO22.5 150 0 min 0 lux 0 W/m
27.10.2014 04:54 11,6 C 10,3 C 13,8 C 82 % 1024,0 hPa 0,0 l/m 7,3 km/h (2 Bft) S 170 0 min 0 lux 0 W/m
27.10.2014 04:59 11,5 C 10,2 C 13,8 C 82 % 1024,0 hPa 0,0 l/m 6,5 km/h (2 Bft) S22.5 170 0 min 0 lux 0 W/m
27.10.2014 05:04 11,5 C 10,2 C 13,8 C 83 % 1024,0 hPa 0,0 l/m 6,5 km/h (2 Bft) S22.5 170 0 min 0 lux 0 W/m
27.10.2014 05:09 11,4 C 10,0 C 13,8 C 83 % 1024,0 hPa 0,0 l/m 0,7 km/h (0 Bft) S-SO 155 0 min 0 lux 0 W/m
27.10.2014 05:14 11,4 C 10,1 C 13,8 C 83 % 1024,0 hPa 0,0 l/m 6,1 km/h (2 Bft) S-SO 155 0 min 0 lux 0 W/m
27.10.2014 05:19 11,4 C 10,3 C 13,8 C 83 % 1024,0 hPa 0,0 l/m 4,8 km/h (1 Bft) S-SO 150 0 min 0 lux 0 W/m
27.10.2014 05:24 11,4 C 10,4 C 13,8 C 83 % 1024,0 hPa 0,0 l/m 1,4 km/h (1 Bft) S-SO 155 0 min 0 lux 0 W/m
27.10.2014 05:25 11,4 C 10,4 C 13,8 C 83 % 1024,0 hPa 0,0 l/m 1,4 km/h (1 Bft) S-SO 155 0 min 0 lux 0 W/m
27.10.2014 05:29 11,4 C 10,5 C 13,8 C 83 % 1024,0 hPa 0,0 l/m 7,4 km/h (2 Bft) SO22.5 145 0 min 0 lux 0 W/m
27.10.2014 05:34 11,5 C 10,6 C 13,8 C 83 % 1024,0 hPa 0,0 l/m 7,4 km/h (2 Bft) SO22.5 145 0 min 0 lux 0 W/m
27.10.2014 05:40 11,5 C 10,7 C 13,8 C 83 % 1024,0 hPa 0,0 l/m 7,3 km/h (2 Bft) S-SO 150 0 min 0 lux 0 W/m
27.10.2014 05:39 11,5 C 10,7 C 13,8 C 83 % 1024,0 hPa 0,0 l/m 7,3 km/h (2 Bft) S-SO 150 0 min 0 lux 0 W/m
27.10.2014 05:40 11,5 C 10,7 C 13,8 C 83 % 1024,0 hPa 0,0 l/m 7,3 km/h (2 Bft) S-SO 150 0 min 0 lux 0 W/m
27.10.2014 05:44 11,5 C 10,7 C 13,8 C 83 % 1024,0 hPa 0,0 l/m 6,5 km/h (2 Bft) S-SO 150 0 min 0 lux 0 W/m
27.10.2014 05:49 11,5 C 10,7 C 13,8 C 83 % 1024,0 hPa 0,0 l/m 5,2 km/h (1 Bft) S-SO 150 0 min 0 lux 0 W/m
27.10.2014 05:54 11,5 C 10,8 C 13,7 C 84 % 1024,0 hPa 0,0 l/m 7,3 km/h (2 Bft) S-SO 150 0 min 0 lux 0 W/m
27.10.2014 06:00 11,5 C 10,7 C 13,8 C 84 % 1024,0 hPa 0,0 l/m 6,5 km/h (2 Bft) SO22.5 145 0 min 0 lux 0 W/m
27.10.2014 06:04 11,5 C 10,7 C 13,7 C 84 % 1024,0 hPa 0,0 l/m 8,2 km/h (2 Bft) S-SO22.5 155 0 min 0 lux 0 W/m
27.10.2014 06:09 11,5 C 10,7 C 13,7 C 84 % 1024,0 hPa 0,0 l/m 6,2 km/h (2 Bft) S-SO22.5 150 0 min 0 lux 0 W/m
27.10.2014 06:15 11,5 C 10,8 C 13,8 C 84 % 1024,0 hPa 0,0 l/m 9,8 km/h (2 Bft) S-SO22.5 155 0 min 0 lux 0 W/m
27.10.2014 06:14 11,5 C 10,8 C 13,8 C 84 % 1024,0 hPa 0,0 l/m 9,8 km/h (2 Bft) S-SO22.5 155 0 min 0 lux 0 W/m
27.10.2014 06:15 11,5 C 10,8 C 13,8 C 84 % 1024,0 hPa 0,0 l/m 9,8 km/h (2 Bft) S-SO22.5 155 0 min 0 lux 0 W/m
27.10.2014 06:19 11,5 C 10,8 C 13,8 C 84 % 1024,0 hPa 0,0 l/m 7,5 km/h (2 Bft) S-SO22.5 155 0 min 0 lux 0 W/m
27.10.2014 06:24 11,5 C 10,8 C 13,8 C 84 % 1024,0 hPa 0,0 l/m 7,2 km/h (2 Bft) S-SO 160 0 min 0 lux 0 W/m
27.10.2014 06:29 11,5 C 10,8 C 13,8 C 84 % 1024,0 hPa 0,0 l/m 5,4 km/h (2 Bft) SO 145 0 min 0 lux 0 W/m
27.10.2014 06:35 11,5 C 10,8 C 13,8 C 84 % 1024,0 hPa 0,0 l/m 5,7 km/h (2 Bft) S-SO22.5 155 0 min 0 lux 0 W/m
27.10.2014 06:39 11,5 C 10,8 C 13,8 C 84 % 1024,0 hPa 0,0 l/m 8,1 km/h (2 Bft) S-SO45 150 0 min 0 lux 0 W/m
27.10.2014 06:44 11,5 C 10,8 C 13,8 C 84 % 1024,0 hPa 0,0 l/m 8,5 km/h (2 Bft) S 170 0 min 0 lux 0 W/m
27.10.2014 06:49 11,5 C 10,8 C 13,7 C 84 % 1024,0 hPa 0,0 l/m 0,0 km/h (0 Bft) O-SO 120 0 min 0 lux 0 W/m
27.10.2014 06:54 11,5 C 10,8 C 13,7 C 84 % 1024,0 hPa 0,0 l/m 0,6 km/h (0 Bft) SO22.5 135 0 min 0 lux 0 W/m
27.10.2014 06:59 11,5 C 10,8 C 13,8 C 84 % 1024,0 hPa 0,0 l/m 0,6 km/h (0 Bft) SO22.5 145 0 min 32 lux 0 W/m
27.10.2014 07:04 11,4 C 10,8 C 13,7 C 84 % 1024,0 hPa 0,0 l/m 0,6 km/h (0 Bft) S-SO22.5 150 0 min 32 lux 0 W/m
27.10.2014 07:09 11,4 C 10,7 C 13,7 C 84 % 1024,0 hPa 0,0 l/m 0,4 km/h (0 Bft) S-SO22.5 155 0 min 32 lux 0 W/m
27.10.2014 07:14 11,5 C 10,8 C 13,8 C 84 % 1024,0 hPa 0,0 l/m 1,7 km/h (1 Bft) SO22.5 145 0 min 81 lux 0 W/m
27.10.2014 07:19 11,5 C 10,8 C 13,8 C 84 % 1024,0 hPa 0,0 l/m 1,7 km/h (1 Bft) SO22.5 145 0 min 81 lux 0 W/m
27.10.2014 07:25 11,4 C 10,8 C 13,7 C 84 % 1024,0 hPa 0,0 l/m 1,3 km/h (1 Bft) SO22.5 140 0 min 392 lux 3 W/m
27.10.2014 07:29 11,4 C 10,8 C 13,7 C 84 % 1024,0 hPa 0,0 l/m 9,8 km/h (2 Bft) S-SO22.5 150 0 min 714 lux 5 W/m
27.10.2014 07:34 11,5 C 10,9 C 13,8 C 84 % 1025,0 hPa 0,0 l/m 5,6 km/h (2 Bft) S-SO22.5 155 0 min 1,01 klux 7 W/m
27.10.2014 07:39 11,5 C 10,9 C 13,8 C 84 % 1025,0 hPa 0,0 l/m 0,1 km/h (0 Bft) S-SO 155 0 min 1,01 klux 7 W/m
27.10.2014 07:44 11,4 C 11,1 C 13,7 C 84 % 1025,0 hPa 0,0 l/m 0,0 km/h (0 Bft) S-SO 155 0 min 1,62 klux 11 W/m
27.10.2014 07:50 11,5 C 11,3 C 13,7 C 84 % 1025,0 hPa 0,0 l/m 3,6 km/h (1 Bft) S-SO 160 0 min 2,41 klux 16 W/m
27.10.2014 07:54 11,5 C 11,4 C 13,7 C 84 % 1025,0 hPa 0,0 l/m 0,0 km/h (0 Bft) S-SO 160 0 min 2,96 klux 20 W/m
27.10.2014 07:59 11,5 C 11,7 C 13,8 C 84 % 1025,0 hPa 0,0 l/m 0,0 km/h (0 Bft) S-SO 160 0 min 2,96 klux 20 W/m
27.10.2014 08:04 11,5 C 11,8 C 13,8 C 84 % 1025,0 hPa 0,0 l/m 0,0 km/h (0 Bft) S-SO 160 0 min 2,96 klux 20 W/m
27.10.2014 08:09 11,6 C 12,0 C 13,7 C 84 % 1025,0 hPa 0,0 l/m 0,0 km/h (0 Bft) S-SO 160 0 min 3,79 klux 26 W/m
27.10.2014 08:15 11,6 C 12,2 C 13,7 C 84 % 1025,0 hPa 0,0 l/m 0,2 km/h (0 Bft) S-SO 150 0 min 4,17 klux 29 W/m
27.10.2014 08:19 11,6 C 12,5 C 13,8 C 84 % 1025,0 hPa 0,0 l/m 2,8 km/h (1 Bft) S-SO22.5 155 0 min 4,98 klux 34 W/m
27.10.2014 08:24 11,6 C 12,7 C 13,8 C 84 % 1025,0 hPa 0,0 l/m 0,1 km/h (0 Bft) S-SO 150 0 min 5,24 klux 36 W/m
27.10.2014 08:29 11,6 C 13,0 C 13,8 C 84 % 1025,0 hPa 0,0 l/m 5,4 km/h (2 Bft) S-SO22.5 155 0 min 5,68 klux 39 W/m
27.10.2014 08:34 11,6 C 13,2 C 13,7 C 84 % 1025,0 hPa 0,0 l/m 0,3 km/h (0 Bft) S-SO22.5 160 0 min 5,53 klux 38 W/m
27.10.2014 08:39 11,7 C 13,3 C 13,7 C 84 % 1025,0 hPa 0,0 l/m 0,8 km/h (0 Bft) S-SO22.5 160 0 min 5,81 klux 40 W/m
27.10.2014 08:45 11,7 C 13,3 C 13,7 C 84 % 1025,0 hPa 0,0 l/m 0,0 km/h (0 Bft) SO22.5 145 0 min 6,76 klux 46 W/m
27.10.2014 08:44 11,7 C 13,3 C 13,7 C 84 % 1025,0 hPa 0,0 l/m 0,0 km/h (0 Bft) SO22.5 145 0 min 6,76 klux 46 W/m
27.10.2014 08:45 11,7 C 13,3 C 13,7 C 84 % 1025,0 hPa 0,0 l/m 0,0 km/h (0 Bft) SO22.5 145 0 min 6,76 klux 46 W/m
27.10.2014 08:49 11,7 C 13,4 C 13,8 C 84 % 1025,0 hPa 0,0 l/m 0,1 km/h (0 Bft) S-SO 155 0 min 7,51 klux 51 W/m
27.10.2014 08:54 11,7 C 13,6 C 13,7 C 84 % 1025,0 hPa 0,0 l/m 10,0 km/h (2 Bft) S-SO22.5 155 0 min 9,7 klux 66 W/m
27.10.2014 08:59 11,8 C 13,9 C 13,7 C 84 % 1025,0 hPa 0,0 l/m 0,6 km/h (0 Bft) S-SO 165 0 min 12,5 klux 86 W/m
27.10.2014 09:04 11,8 C 14,3 C 13,8 C 84 % 1025,0 hPa 0,0 l/m 0,6 km/h (0 Bft) S-SO22.5 165 5 min 18,2 klux 124 W/m
27.10.2014 09:09 12,0 C 15,1 C 13,7 C 83 % 1025,0 hPa 0,0 l/m 9,7 km/h (2 Bft) S-SO22.5 165 5 min 21,1 klux 144 W/m
27.10.2014 09:14 12,0 C 15,6 C 13,7 C 82 % 1025,0 hPa 0,0 l/m 12,1 km/h (2 Bft) S-SO22.5 160 5 min 20,0 klux 137 W/m
27.10.2014 09:15 12,0 C 15,6 C 13,7 C 82 % 1025,0 hPa 0,0 l/m 12,1 km/h (2 Bft) S-SO22.5 160 1 min 20,0 klux 137 W/m
27.10.2014 09:19 12,2 C 16,8 C 13,7 C 82 % 1025,0 hPa 0,0 l/m 12,0 km/h (2 Bft) S22.5 170 4 min 24,7 klux 169 W/m
27.10.2014 09:24 12,4 C 18,2 C 13,7 C 82 % 1025,0 hPa 0,0 l/m 11,1 km/h (2 Bft) S22.5 170 5 min 24,7 klux 169 W/m
27.10.2014 09:30 12,6 C 19,1 C 13,7 C 81 % 1025,0 hPa 0,0 l/m 11,4 km/h (2 Bft) S-SO45 160 6 min 26,6 klux 182 W/m
27.10.2014 09:29 12,6 C 19,1 C 13,7 C 81 % 1025,0 hPa 0,0 l/m 11,4 km/h (2 Bft) S-SO45 160 -1 min 26,6 klux 182 W/m
27.10.2014 09:35 12,7 C 20,3 C 13,7 C 80 % 1025,0 hPa 0,0 l/m 11,3 km/h (2 Bft) S-SO22.5 160 6 min 31,3 klux 214 W/m
27.10.2014 09:40 12,9 C 21,7 C 13,7 C 79 % 1025,0 hPa 0,0 l/m 11,5 km/h (2 Bft) S-SO45 160 5 min 31,7 klux 217 W/m
27.10.2014 09:44 13,2 C 23,1 C 13,7 C 79 % 1025,0 hPa 0,0 l/m 10,1 km/h (2 Bft) S-SO22.5 155 4 min 33,8 klux 231 W/m
27.10.2014 09:49 13,3 C 23,7 C 13,7 C 77 % 1025,0 hPa 0,0 l/m 14,3 km/h (3 Bft) S-SO45 160 5 min 33,8 klux 231 W/m
27.10.2014 09:54 13,6 C 24,5 C 13,7 C 77 % 1025,0 hPa 0,0 l/m 11,3 km/h (2 Bft) S-SO22.5 165 5 min 34,8 klux 238 W/m
27.10.2014 09:59 13,7 C 25,3 C 13,7 C 77 % 1025,0 hPa 0,0 l/m 12,2 km/h (2 Bft) S22.5 175 5 min 32,8 klux 224 W/m
27.10.2014 10:05 13,8 C 25,5 C 13,7 C 76 % 1025,0 hPa 0,0 l/m 13,6 km/h (3 Bft) S-SO22.5 165 6 min 37,5 klux 257 W/m
27.10.2014 10:09 13,9 C 26,8 C 13,7 C 76 % 1025,0 hPa 0,0 l/m 12,1 km/h (2 Bft) S-SO45 160 4 min 37,8 klux 259 W/m
27.10.2014 10:14 14,0 C 27,4 C 13,7 C 75 % 1025,0 hPa 0,0 l/m 14,6 km/h (3 Bft) S-SO45 165 5 min 37,5 klux 257 W/m
27.10.2014 10:19 14,4 C 28,0 C 13,8 C 74 % 1025,0 hPa 0,0 l/m 8,4 km/h (2 Bft) S-SO22.5 165 5 min 37,9 klux 259 W/m
27.10.2014 10:24 14,4 C 27,7 C 13,8 C 74 % 1025,0 hPa 0,0 l/m 13,9 km/h (3 Bft) S45 170 5 min 34,0 klux 233 W/m
27.10.2014 10:29 14,3 C 27,3 C 13,8 C 74 % 1025,0 hPa 0,0 l/m 14,5 km/h (3 Bft) S-SO22.5 160 5 min 38,0 klux 260 W/m
27.10.2014 10:35 14,5 C 27,7 C 13,8 C 74 % 1025,0 hPa 0,0 l/m 13,0 km/h (3 Bft) S22.5 170 6 min 36,5 klux 250 W/m
27.10.2014 10:40 14,6 C 28,2 C 13,8 C 74 % 1025,0 hPa 0,0 l/m 14,3 km/h (3 Bft) S45 175 5 min 40,1 klux 274 W/m
27.10.2014 10:44 14,7 C 28,8 C 13,8 C 73 % 1025,0 hPa 0,0 l/m 15,6 km/h (3 Bft) S-SO22.5 160 4 min 38,3 klux 262 W/m
27.10.2014 10:49 14,9 C 29,1 C 13,9 C 73 % 1025,0 hPa 0,0 l/m 16,1 km/h (3 Bft) S-SO45 160 5 min 37,6 klux 257 W/m
27.10.2014 10:54 15,0 C 28,7 C 13,9 C 73 % 1025,0 hPa 0,0 l/m 16,1 km/h (3 Bft) S-SO45 160 0 min 27,8 klux 190 W/m
27.10.2014 10:59 14,8 C 27,2 C 13,9 C 73 % 1025,0 hPa 0,0 l/m 13,3 km/h (3 Bft) S-SO22.5 165 0 min 29,3 klux 200 W/m
27.10.2014 11:05 14,8 C 26,8 C 14,0 C 73 % 1025,0 hPa 0,0 l/m 11,1 km/h (2 Bft) S-SO45 160 0 min 30,3 klux 207 W/m
27.10.2014 11:09 15,0 C 27,8 C 14,0 C 73 % 1025,0 hPa 0,0 l/m 11,3 km/h (2 Bft) S-SO22.5 165 4 min 37,2 klux 254 W/m
27.10.2014 11:14 14,9 C 28,0 C 14,0 C 73 % 1025,0 hPa 0,0 l/m 11,8 km/h (2 Bft) S-SO45 150 5 min 35,8 klux 245 W/m
27.10.2014 11:19 15,0 C 29,1 C 14,1 C 73 % 1025,0 hPa 0,0 l/m 14,5 km/h (3 Bft) S-SO45 160 5 min 44,3 klux 303 W/m
27.10.2014 11:24 15,4 C 30,6 C 14,1 C 72 % 1025,0 hPa 0,0 l/m 13,1 km/h (3 Bft) S-SO45 155 5 min 44,3 klux 303 W/m
27.10.2014 11:29 15,5 C 30,6 C 14,1 C 72 % 1025,0 hPa 0,0 l/m 12,1 km/h (2 Bft) S22.5 175 5 min 42,6 klux 291 W/m
27.10.2014 11:35 15,5 C 30,9 C 14,2 C 71 % 1025,0 hPa 0,0 l/m 16,0 km/h (3 Bft) S45 170 6 min 39,8 klux 272 W/m
27.10.2014 11:40 15,6 C 29,8 C 14,2 C 71 % 1025,0 hPa 0,0 l/m 14,8 km/h (3 Bft) S22.5 190 0 min 32,1 klux 220 W/m
27.10.2014 11:44 15,4 C 29,1 C 14,2 C 71 % 1024,0 hPa 0,0 l/m 14,8 km/h (3 Bft) S22.5 190 0 min 32,1 klux 220 W/m
27.10.2014 11:49 15,4 C 29,2 C 14,3 C 71 % 1024,0 hPa 0,0 l/m 12,4 km/h (2 Bft) S22.5 180 5 min 38,6 klux 264 W/m
27.10.2014 11:54 15,3 C 29,0 C 14,3 C 71 % 1025,0 hPa 0,0 l/m 16,0 km/h (3 Bft) S-SO45 165 5 min 35,5 klux 243 W/m
27.10.2014 11:59 15,3 C 29,0 C 14,4 C 71 % 1024,0 hPa 0,0 l/m 16,5 km/h (3 Bft) S-SO22.5 165 5 min 35,3 klux 241 W/m
27.10.2014 12:04 15,3 C 28,7 C 14,4 C 71 % 1024,0 hPa 0,0 l/m 13,9 km/h (3 Bft) S-SO45 160 5 min 34,4 klux 235 W/m
27.10.2014 12:09 15,3 C 28,8 C 14,4 C 71 % 1024,0 hPa 0,0 l/m 15,5 km/h (3 Bft) S-SO22.5 160 5 min 36,4 klux 249 W/m
27.10.2014 12:14 15,4 C 29,5 C 14,5 C 71 % 1024,0 hPa 0,0 l/m 14,4 km/h (3 Bft) S45 175 5 min 39,3 klux 269 W/m
27.10.2014 12:19 15,4 C 30,1 C 14,6 C 71 % 1024,0 hPa 0,0 l/m 14,5 km/h (3 Bft) S45 170 5 min 42,3 klux 289 W/m
27.10.2014 12:24 15,6 C 30,9 C 14,6 C 71 % 1024,0 hPa 0,0 l/m 15,8 km/h (3 Bft) S22.5 170 5 min 41,9 klux 287 W/m
27.10.2014 12:29 15,6 C 31,7 C 14,7 C 71 % 1024,0 hPa 0,0 l/m 14,6 km/h (3 Bft) S-SO22.5 165 5 min 45,0 klux 308 W/m
27.10.2014 12:35 15,6 C 31,7 C 14,7 C 71 % 1024,0 hPa 0,0 l/m 15,5 km/h (3 Bft) S-SO22.5 165 6 min 45,0 klux 308 W/m
27.10.2014 12:39 15,6 C 32,5 C 14,8 C 71 % 1024,0 hPa 0,0 l/m 14,5 km/h (3 Bft) S-SO45 165 4 min 44,2 klux 302 W/m
27.10.2014 12:44 15,7 C 32,2 C 14,8 C 71 % 1024,0 hPa 0,0 l/m 13,7 km/h (3 Bft) S22.5 170 5 min 36,6 klux 250 W/m
27.10.2014 12:49 15,7 C 31,3 C 14,9 C 71 % 1024,0 hPa 0,0 l/m 10,8 km/h (2 Bft) S45 175 0 min 33,0 klux 226 W/m
27.10.2014 12:54 15,5 C 29,2 C 14,9 C 71 % 1024,0 hPa 0,0 l/m 13,0 km/h (3 Bft) S45 180 0 min 28,0 klux 192 W/m
27.10.2014 12:59 15,4 C 27,5 C 14,9 C 72 % 1024,0 hPa 0,0 l/m 13,4 km/h (3 Bft) S22.5 180 0 min 28,1 klux 192 W/m
27.10.2014 13:04 15,2 C 26,5 C 15,0 C 72 % 1024,0 hPa 0,0 l/m 14,3 km/h (3 Bft) S-SO45 160 0 min 28,1 klux 192 W/m
27.10.2014 13:09 15,2 C 26,0 C 15,0 C 72 % 1024,0 hPa 0,0 l/m 13,1 km/h (3 Bft) S45 175 0 min 27,7 klux 189 W/m
27.10.2014 13:14 15,3 C 25,7 C 15,0 C 73 % 1024,0 hPa 0,0 l/m 13,1 km/h (3 Bft) S45 175 0 min 26,4 klux 181 W/m
27.10.2014 13:19 15,2 C 25,2 C 15,0 C 73 % 1024,0 hPa 0,0 l/m 14,4 km/h (3 Bft) S-SO22.5 160 0 min 28,1 klux 192 W/m
27.10.2014 13:24 15,2 C 25,2 C 15,0 C 73 % 1024,0 hPa 0,0 l/m 13,7 km/h (3 Bft) S45 170 0 min 28,9 klux 198 W/m
27.10.2014 13:30 15,1 C 25,4 C 15,0 C 73 % 1024,0 hPa 0,0 l/m 15,5 km/h (3 Bft) S45 175 0 min 28,8 klux 197 W/m
27.10.2014 13:35 15,0 C 25,1 C 15,0 C 73 % 1024,0 hPa 0,0 l/m 15,5 km/h (3 Bft) S45 175 0 min 27,9 klux 191 W/m
27.10.2014 13:39 15,0 C 24,8 C 15,0 C 73 % 1024,0 hPa 0,0 l/m 18,5 km/h (3 Bft) S45 170 0 min 28,0 klux 192 W/m
27.10.2014 13:44 15,0 C 24,6 C 15,0 C 73 % 1024,0 hPa 0,0 l/m 17,6 km/h (3 Bft) S-SO22.5 165 0 min 26,7 klux 183 W/m
27.10.2014 13:49 15,0 C 24,2 C 15,0 C 73 % 1023,0 hPa 0,0 l/m 15,7 km/h (3 Bft) S-SO67.5 165 0 min 25,6 klux 175 W/m
27.10.2014 13:54 15,0 C 23,5 C 15,0 C 74 % 1023,0 hPa 0,0 l/m 15,0 km/h (3 Bft) S-SO45 150 0 min 23,8 klux 163 W/m
27.10.2014 14:00 15,0 C 23,3 C 15,0 C 74 % 1024,0 hPa 0,0 l/m 13,5 km/h (3 Bft) S-SO22.5 165 0 min 23,8 klux 163 W/m
27.10.2014 14:04 14,8 C 23,1 C 15,0 C 75 % 1023,0 hPa 0,0 l/m 13,8 km/h (3 Bft) S45 170 0 min 23,5 klux 161 W/m
27.10.2014 14:09 15,0 C 23,1 C 15,0 C 75 % 1023,0 hPa 0,0 l/m 13,9 km/h (3 Bft) S22.5 170 0 min 23,1 klux 158 W/m
27.10.2014 14:14 15,0 C 22,5 C 15,0 C 75 % 1023,0 hPa 0,0 l/m 13,9 km/h (3 Bft) S22.5 170 0 min 21,6 klux 148 W/m
27.10.2014 14:19 14,7 C 21,7 C 15,0 C 75 % 1023,0 hPa 0,0 l/m 13,2 km/h (3 Bft) S-SO22.5 165 0 min 20,2 klux 138 W/m
27.10.2014 14:24 14,7 C 21,2 C 15,0 C 75 % 1023,0 hPa 0,0 l/m 13,2 km/h (3 Bft) S-SO22.5 165 0 min 19,9 klux 136 W/m
27.10.2014 14:30 14,7 C 21,1 C 15,0 C 75 % 1023,0 hPa 0,0 l/m 12,4 km/h (2 Bft) S45 175 0 min 19,8 klux 135 W/m
27.10.2014 14:34 14,6 C 20,9 C 15,0 C 75 % 1023,0 hPa 0,0 l/m 13,9 km/h (3 Bft) S22.5 180 0 min 19,3 klux 132 W/m
27.10.2014 14:39 14,5 C 20,6 C 15,0 C 76 % 1023,0 hPa 0,0 l/m 10,8 km/h (2 Bft) S22.5 170 0 min 18,9 klux 129 W/m
27.10.2014 14:44 14,6 C 20,6 C 14,9 C 76 % 1023,0 hPa 0,0 l/m 12,1 km/h (2 Bft) S45 170 0 min 18,9 klux 129 W/m
27.10.2014 14:49 14,5 C 20,4 C 14,9 C 76 % 1023,0 hPa 0,0 l/m 14,0 km/h (3 Bft) S45 170 0 min 19,0 klux 130 W/m
27.10.2014 14:54 14,5 C 20,2 C 14,9 C 77 % 1023,0 hPa 0,0 l/m 13,0 km/h (3 Bft) S-SO22.5 165 0 min 19,1 klux 131 W/m
27.10.2014 15:00 14,5 C 20,2 C 14,9 C 77 % 1023,0 hPa 0,0 l/m 13,4 km/h (3 Bft) S22.5 170 0 min 18,9 klux 129 W/m
27.10.2014 15:04 14,5 C 20,3 C 14,9 C 77 % 1023,0 hPa 0,0 l/m 11,0 km/h (2 Bft) S22.5 170 0 min 18,1 klux 124 W/m
27.10.2014 15:09 14,5 C 19,9 C 14,9 C 77 % 1023,0 hPa 0,0 l/m 14,4 km/h (3 Bft) S-SO22.5 165 0 min 17,0 klux 116 W/m
27.10.2014 15:14 14,5 C 19,7 C 15,0 C 76 % 1023,0 hPa 0,0 l/m 21,2 km/h (4 Bft) S-SO22.5 160 0 min 17,0 klux 116 W/m
27.10.2014 15:19 14,4 C 19,3 C 14,9 C 76 % 1023,0 hPa 0,0 l/m 18,1 km/h (3 Bft) S-SO45 165 0 min 16,8 klux 115 W/m
27.10.2014 15:24 14,3 C 19,0 C 14,9 C 77 % 1023,0 hPa 0,0 l/m 15,4 km/h (3 Bft) S-SO22.5 155 0 min 16,2 klux 111 W/m
27.10.2014 15:30 14,2 C 18,7 C 14,9 C 77 % 1023,0 hPa 0,0 l/m 14,6 km/h (3 Bft) S22.5 170 0 min 15,4 klux 105 W/m
27.10.2014 15:34 14,1 C 18,2 C 14,9 C 77 % 1023,0 hPa 0,0 l/m 12,5 km/h (2 Bft) S22.5 170 0 min 13,8 klux 94 W/m
27.10.2014 15:39 14,0 C 17,9 C 14,8 C 77 % 1023,0 hPa 0,0 l/m 17,2 km/h (3 Bft) S-SO22.5 160 0 min 14,7 klux 101 W/m
27.10.2014 15:44 13,9 C 17,6 C 14,8 C 77 % 1023,0 hPa 0,0 l/m 15,5 km/h (3 Bft) S-SO22.5 165 0 min 14,4 klux 98 W/m
27.10.2014 15:49 13,8 C 17,3 C 14,8 C 77 % 1023,0 hPa 0,0 l/m 16,5 km/h (3 Bft) S-SO22.5 165 0 min 14,4 klux 98 W/m
27.10.2014 15:54 13,7 C 17,4 C 14,8 C 77 % 1023,0 hPa 0,0 l/m 16,5 km/h (3 Bft) S-SO22.5 165 5 min 14,8 klux 101 W/m
27.10.2014 16:00 13,7 C 17,5 C 14,8 C 78 % 1023,0 hPa 0,0 l/m 14,6 km/h (3 Bft) S-SO45 160 6 min 17,4 klux 119 W/m
27.10.2014 16:04 13,6 C 18,2 C 14,8 C 78 % 1023,0 hPa 0,0 l/m 6,5 km/h (2 Bft) S-SO22.5 165 4 min 16,7 klux 114 W/m
27.10.2014 16:09 13,6 C 18,1 C 14,7 C 78 % 1023,0 hPa 0,0 l/m 16,9 km/h (3 Bft) S-SO67.5 160 5 min 14,0 klux 96 W/m
27.10.2014 16:14 13,5 C 17,7 C 14,7 C 78 % 1023,0 hPa 0,0 l/m 17,1 km/h (3 Bft) S-SO22.5 160 5 min 11,2 klux 77 W/m
27.10.2014 16:19 13,4 C 16,5 C 14,7 C 79 % 1023,0 hPa 0,0 l/m 15,0 km/h (3 Bft) S-SO22.5 160 5 min 11,2 klux 77 W/m
27.10.2014 16:25 13,4 C 15,3 C 14,7 C 79 % 1023,0 hPa 0,0 l/m 11,8 km/h (2 Bft) SO67.5 145 0 min 6,49 klux 44 W/m
27.10.2014 16:30 13,2 C 14,8 C 14,7 C 79 % 1023,0 hPa 0,0 l/m 1,8 km/h (1 Bft) SO22.5 125 0 min 5,39 klux 37 W/m
27.10.2014 16:34 13,0 C 13,9 C 14,6 C 79 % 1023,0 hPa 0,0 l/m 1,6 km/h (1 Bft) SO22.5 140 0 min 4,60 klux 31 W/m
27.10.2014 16:39 13,1 C 13,2 C 14,6 C 80 % 1023,0 hPa 0,0 l/m 1,3 km/h (1 Bft) SO22.5 145 0 min 4,60 klux 31 W/m
27.10.2014 16:44 12,9 C 12,9 C 14,6 C 80 % 1023,0 hPa 0,0 l/m 0,7 km/h (0 Bft) S-SO 150 0 min 3,84 klux 26 W/m
27.10.2014 16:49 12,8 C 12,2 C 14,5 C 81 % 1023,0 hPa 0,0 l/m 9,3 km/h (2 Bft) S-SO45 155 0 min 3,30 klux 23 W/m
27.10.2014 16:54 12,7 C 11,9 C 14,5 C 81 % 1023,0 hPa 0,0 l/m 9,4 km/h (2 Bft) S45 170 0 min 3,14 klux 21 W/m
27.10.2014 17:00 12,6 C 11,8 C 14,5 C 81 % 1023,0 hPa 0,0 l/m 6,7 km/h (2 Bft) SO22.5 140 6 min 2,42 klux 17 W/m
27.10.2014 17:04 12,5 C 11,3 C 14,5 C 81 % 1023,0 hPa 0,0 l/m 1,3 km/h (1 Bft) S-SO45 160 4 min 1,43 klux 10 W/m
27.10.2014 17:09 12,4 C 10,8 C 14,4 C 82 % 1023,0 hPa 0,0 l/m 1,3 km/h (1 Bft) S-SO45 160 0 min 1,43 klux 10 W/m
27.10.2014 17:14 12,3 C 10,6 C 14,4 C 82 % 1023,0 hPa 0,0 l/m 1,3 km/h (1 Bft) S-SO45 160 0 min 1,43 klux 0 W/m
27.10.2014 17:19 12,2 C 10,1 C 14,4 C 82 % 1023,0 hPa 0,0 l/m 7,7 km/h (2 Bft) SO45 140 0 min 581 lux 0 W/m
27.10.2014 17:25 12,0 C 9,9 C 14,4 C 82 % 1023,0 hPa 0,0 l/m 2,5 km/h (1 Bft) SO67.5 145 0 min 483 lux 0 W/m
27.10.2014 17:30 12,0 C 9,6 C 14,4 C 82 % 1023,0 hPa 0,0 l/m 6,1 km/h (2 Bft) S-SO22.5 165 0 min 314 lux 0 W/m
27.10.2014 17:34 11,9 C 9,6 C 14,4 C 83 % 1023,0 hPa 0,0 l/m 0,4 km/h (0 Bft) S-SO 165 0 min 125 lux 0 W/m
27.10.2014 17:39 11,8 C 9,3 C 14,4 C 83 % 1023,0 hPa 0,0 l/m 7,4 km/h (2 Bft) SO22.5 140 0 min 58 lux 0 W/m
27.10.2014 17:44 11,8 C 9,1 C 14,4 C 83 % 1023,0 hPa 0,0 l/m 7,4 km/h (2 Bft) SO22.5 140 0 min 19 lux 0 W/m
27.10.2014 17:49 11,6 C 9,0 C 14,4 C 83 % 1023,0 hPa 0,0 l/m 0,1 km/h (0 Bft) SO 125 0 min 5 lux 0 W/m
27.10.2014 17:55 11,6 C 8,8 C 14,4 C 84 % 1023,0 hPa 0,0 l/m 3,2 km/h (1 Bft) S-SO45 160 0 min 0 lux 0 W/m
27.10.2014 18:00 11,5 C 8,7 C 14,4 C 84 % 1023,0 hPa 0,0 l/m 0,9 km/h (0 Bft) SO22.5 130 0 min 0 lux 0 W/m
27.10.2014 18:04 11,4 C 8,6 C 14,4 C 84 % 1023,0 hPa 0,0 l/m 0,6 km/h (0 Bft) SO 140 0 min 0 lux 0 W/m
27.10.2014 18:09 11,4 C 8,6 C 14,4 C 84 % 1023,0 hPa 0,0 l/m 8,4 km/h (2 Bft) S-SO22.5 150 0 min 0 lux 0 W/m
27.10.2014 18:14 11,3 C 8,5 C 14,4 C 84 % 1023,0 hPa 0,0 l/m 8,4 km/h (2 Bft) S-SO22.5 150 0 min 0 lux 0 W/m
27.10.2014 18:19 11,3 C 8,6 C 14,4 C 84 % 1023,0 hPa 0,0 l/m 11,3 km/h (2 Bft) S-SO22.5 150 0 min 0 lux 0 W/m
27.10.2014 18:25 11,3 C 8,5 C 14,4 C 84 % 1023,0 hPa 0,0 l/m 9,6 km/h (2 Bft) S-SO22.5 155 0 min 0 lux 0 W/m
27.10.2014 18:30 11,2 C 8,5 C 14,4 C 84 % 1023,0 hPa 0,0 l/m 2,1 km/h (1 Bft) SO22.5 135 0 min 0 lux 0 W/m
27.10.2014 18:34 11,2 C 8,5 C 14,4 C 84 % 1022,0 hPa 0,0 l/m 9,1 km/h (2 Bft) S-SO45 150 0 min 0 lux 0 W/m
27.10.2014 18:39 11,2 C 8,5 C 14,4 C 85 % 1022,0 hPa 0,0 l/m 12,8 km/h (3 Bft) S-SO45 155 0 min 0 lux 0 W/m
27.10.2014 18:44 11,2 C 8,5 C 14,4 C 85 % 1022,0 hPa 0,0 l/m 8,8 km/h (2 Bft) S-SO22.5 160 0 min 0 lux 0 W/m
27.10.2014 18:49 11,2 C 8,5 C 14,4 C 85 % 1022,0 hPa 0,0 l/m 9,7 km/h (2 Bft) S-SO22.5 160 0 min 0 lux 0 W/m
27.10.2014 18:55 11,2 C 8,5 C 14,4 C 85 % 1022,0 hPa 0,0 l/m 9,7 km/h (2 Bft) S-SO22.5 160 0 min 0 lux 0 W/m
27.10.2014 19:00 11,1 C 8,5 C 14,4 C 85 % 1022,0 hPa 0,0 l/m 8,0 km/h (2 Bft) S-SO45 160 0 min 0 lux 0 W/m
27.10.2014 19:04 11,2 C 8,5 C 14,4 C 85 % 1022,0 hPa 0,0 l/m 12,6 km/h (3 Bft) S-SO22.5 155 0 min 0 lux 0 W/m
27.10.2014 19:09 11,1 C 8,5 C 14,4 C 85 % 1022,0 hPa 0,0 l/m 12,8 km/h (3 Bft) S-SO45 160 0 min 0 lux 0 W/m
27.10.2014 19:14 11,1 C 8,4 C 14,4 C 85 % 1022,0 hPa 0,0 l/m 12,8 km/h (3 Bft) S-SO45 160 0 min 0 lux 0 W/m
27.10.2014 19:20 11,1 C 8,3 C 14,4 C 85 % 1022,0 hPa 0,0 l/m 6,8 km/h (2 Bft) S-SO45 155 0 min 0 lux 0 W/m
27.10.2014 19:25 11,1 C 8,3 C 14,4 C 85 % 1022,0 hPa 0,0 l/m 6,8 km/h (2 Bft) S-SO45 155 0 min 0 lux 0 W/m
27.10.2014 19:30 11,1 C 8,3 C 14,4 C 85 % 1022,0 hPa 0,0 l/m 14,3 km/h (3 Bft) S-SO45 160 0 min 0 lux 0 W/m
27.10.2014 19:34 11,0 C 8,4 C 14,4 C 85 % 1022,0 hPa 0,0 l/m 14,3 km/h (3 Bft) S-SO45 160 0 min 0 lux 0 W/m
27.10.2014 19:39 11,0 C 8,2 C 14,4 C 85 % 1022,0 hPa 0,0 l/m 14,3 km/h (3 Bft) S-SO45 160 0 min 0 lux 0 W/m
27.10.2014 19:44 11,0 C 8,3 C 14,4 C 84 % 1022,0 hPa 0,0 l/m 16,7 km/h (3 Bft) S45 170 0 min 0 lux 0 W/m
27.10.2014 19:49 10,9 C 8,3 C 14,4 C 84 % 1022,0 hPa 0,0 l/m 13,3 km/h (3 Bft) S-SO22.5 155 0 min 0 lux 0 W/m
27.10.2014 19:55 10,8 C 8,3 C 14,4 C 84 % 1022,0 hPa 0,0 l/m 16,6 km/h (3 Bft) S-SO67.5 160 0 min 0 lux 0 W/m
27.10.2014 20:00 10,8 C 8,3 C 14,4 C 84 % 1022,0 hPa 0,0 l/m 20,0 km/h (4 Bft) S-SO45 165 0 min 0 lux 0 W/m
27.10.2014 20:04 10,8 C 8,4 C 14,4 C 84 % 1022,0 hPa 0,0 l/m 15,8 km/h (3 Bft) S-SO22.5 165 0 min 0 lux 0 W/m
27.10.2014 20:09 10,8 C 8,3 C 14,3 C 84 % 1022,0 hPa 0,0 l/m 13,2 km/h (3 Bft) S-SO45 160 0 min 0 lux 0 W/m
27.10.2014 20:14 10,8 C 8,3 C 14,3 C 84 % 1022,0 hPa 0,0 l/m 13,2 km/h (3 Bft) S-SO45 160 0 min 0 lux 0 W/m
27.10.2014 20:20 10,7 C 8,3 C 14,3 C 84 % 1022,0 hPa 0,0 l/m 13,2 km/h (3 Bft) S-SO45 160 0 min 0 lux 0 W/m
27.10.2014 20:25 10,7 C 8,2 C 14,3 C 84 % 1022,0 hPa 0,0 l/m 14,1 km/h (3 Bft) S-SO45 160 0 min 0 lux 0 W/m
27.10.2014 20:30 10,6 C 8,0 C 14,3 C 84 % 1022,0 hPa 0,0 l/m 17,8 km/h (3 Bft) S-SO22.5 160 0 min 0 lux 0 W/m
27.10.2014 20:34 10,6 C 8,0 C 14,3 C 84 % 1022,0 hPa 0,0 l/m 16,3 km/h (3 Bft) S-SO22.5 165 0 min 0 lux 0 W/m
27.10.2014 20:39 10,5 C 8,1 C 14,3 C 85 % 1022,0 hPa 0,0 l/m 18,8 km/h (3 Bft) S-SO45 160 0 min 0 lux 0 W/m
27.10.2014 20:44 10,6 C 8,0 C 14,3 C 84 % 1022,0 hPa 0,0 l/m 20,8 km/h (4 Bft) S-SO22.5 160 0 min 0 lux 0 W/m
27.10.2014 20:49 10,5 C 8,0 C 14,3 C 84 % 1022,0 hPa 0,0 l/m 15,5 km/h (3 Bft) S-SO45 165 0 min 0 lux 0 W/m
27.10.2014 20:55 10,4 C 7,9 C 14,3 C 84 % 1022,0 hPa 0,0 l/m 15,5 km/h (3 Bft) S-SO45 165 0 min 0 lux 0 W/m
27.10.2014 21:00 10,4 C 7,8 C 14,3 C 85 % 1022,0 hPa 0,0 l/m 14,9 km/h (3 Bft) S-SO45 155 0 min 0 lux 0 W/m
27.10.2014 21:04 10,3 C 7,8 C 14,3 C 85 % 1022,0 hPa 0,0 l/m 14,9 km/h (3 Bft) S-SO45 155 0 min 0 lux 0 W/m
27.10.2014 21:09 10,3 C 7,8 C 14,3 C 85 % 1022,0 hPa 0,0 l/m 18,1 km/h (3 Bft) S-SO45 150 0 min 0 lux 0 W/m
27.10.2014 21:14 10,2 C 7,7 C 14,3 C 84 % 1022,0 hPa 0,0 l/m 18,1 km/h (3 Bft) S-SO45 150 0 min 0 lux 0 W/m
27.10.2014 21:20 10,2 C 7,6 C 14,3 C 84 % 1022,0 hPa 0,0 l/m 17,2 km/h (3 Bft) SO45 140 0 min 0 lux 0 W/m
27.10.2014 21:25 10,1 C 7,5 C 14,2 C 84 % 1022,0 hPa 0,0 l/m 15,8 km/h (3 Bft) S-SO22.5 160 0 min 0 lux 0 W/m
27.10.2014 21:29 10,0 C 7,6 C 14,2 C 85 % 1022,0 hPa 0,0 l/m 16,9 km/h (3 Bft) S67.5 170 0 min 0 lux 0 W/m
27.10.2014 21:34 10,0 C 7,5 C 14,2 C 85 % 1022,0 hPa 0,0 l/m 20,0 km/h (4 Bft) S-SO22.5 160 0 min 0 lux 0 W/m
27.10.2014 21:39 10,0 C 7,5 C 14,2 C 85 % 1022,0 hPa 0,0 l/m 20,0 km/h (4 Bft) S-SO22.5 160 0 min 0 lux 0 W/m
27.10.2014 21:44 9,9 C 7,5 C 14,2 C 84 % 1022,0 hPa 0,0 l/m 15,6 km/h (3 Bft) S-SO45 160 0 min 0 lux 0 W/m
27.10.2014 21:49 9,9 C 7,5 C 14,2 C 84 % 1022,0 hPa 0,0 l/m 18,1 km/h (3 Bft) S-SO45 150 0 min 0 lux 0 W/m
27.10.2014 21:55 9,9 C 7,5 C 14,2 C 84 % 1022,0 hPa 0,0 l/m 23,0 km/h (4 Bft) S-SO22.5 155 0 min 0 lux 0 W/m
27.10.2014 22:00 9,8 C 7,4 C 14,2 C 84 % 1022,0 hPa 0,0 l/m 23,0 km/h (4 Bft) S-SO22.5 155 0 min 0 lux 0 W/m
27.10.2014 22:04 9,8 C 7,3 C 14,2 C 84 % 1022,0 hPa 0,0 l/m 21,6 km/h (4 Bft) S-SO45 160 0 min 0 lux 0 W/m
27.10.2014 22:09 9,8 C 7,3 C 14,1 C 84 % 1022,0 hPa 0,0 l/m 20,4 km/h (4 Bft) S-SO45 155 0 min 0 lux 0 W/m
27.10.2014 22:14 9,7 C 7,2 C 14,2 C 84 % 1022,0 hPa 0,0 l/m 20,4 km/h (4 Bft) S-SO45 155 0 min 0 lux 0 W/m
27.10.2014 22:20 9,6 C 7,1 C 14,1 C 84 % 1022,1 hPa 0,0 l/m 16,0 km/h (3 Bft) S-SO45 155 0 min 0 lux 0 W/m
27.10.2014 22:25 9,6 C 7,1 C 14,1 C 84 % 1022,1 hPa 0,0 l/m 16,0 km/h (3 Bft) S-SO45 155 0 min 0 lux 0 W/m
27.10.2014 22:29 9,6 C 6,9 C 14,1 C 84 % 1022,1 hPa 0,0 l/m 14,0 km/h (3 Bft) S-SO45 150 0 min 0 lux 0 W/m
27.10.2014 22:34 9,5 C 6,9 C 14,1 C 84 % 1022,1 hPa 0,0 l/m 18,3 km/h (3 Bft) S-SO45 155 0 min 0 lux 0 W/m
27.10.2014 22:39 9,5 C 6,9 C 14,1 C 84 % 1022,1 hPa 0,0 l/m 17,6 km/h (3 Bft) S-SO22.5 160 0 min 0 lux 0 W/m
27.10.2014 22:44 9,4 C 6,8 C 14,1 C 84 % 1022,1 hPa 0,0 l/m 20,1 km/h (4 Bft) S-SO45 160 0 min 0 lux 0 W/m
27.10.2014 22:49 9,4 C 6,7 C 14,1 C 85 % 1022,1 hPa 0,0 l/m 15,6 km/h (3 Bft) SO22.5 140 0 min 0 lux 0 W/m
27.10.2014 22:55 9,3 C 6,6 C 14,1 C 85 % 1022,1 hPa 0,0 l/m 15,6 km/h (3 Bft) SO22.5 140 0 min 0 lux 0 W/m
27.10.2014 23:00 9,3 C 6,6 C 14,1 C 85 % 1022,1 hPa 0,0 l/m 16,1 km/h (3 Bft) S-SO67.5 165 0 min 0 lux 0 W/m
27.10.2014 23:04 9,2 C 6,6 C 14,1 C 85 % 1022,1 hPa 0,0 l/m 17,9 km/h (3 Bft) S-SO67.5 155 0 min 0 lux 0 W/m
27.10.2014 23:09 9,2 C 6,6 C 14,1 C 85 % 1022,1 hPa 0,0 l/m 18,6 km/h (3 Bft) S-SO45 155 0 min 0 lux 0 W/m
27.10.2014 23:14 9,2 C 6,6 C 14,1 C 85 % 1022,1 hPa 0,0 l/m 15,6 km/h (3 Bft) S-SO45 155 0 min 0 lux 0 W/m
27.10.2014 23:20 9,2 C 6,5 C 14,0 C 85 % 1022,1 hPa 0,0 l/m 13,2 km/h (3 Bft) S-SO67.5 150 0 min 0 lux 0 W/m
27.10.2014 23:25 9,2 C 6,5 C 14,1 C 85 % 1022,1 hPa 0,0 l/m 13,2 km/h (3 Bft) S-SO67.5 150 0 min 0 lux 0 W/m
27.10.2014 23:29 9,2 C 6,5 C 14,0 C 85 % 1022,1 hPa 0,0 l/m 19,8 km/h (3 Bft) S-SO45 160 0 min 0 lux 0 W/m
27.10.2014 23:34 9,1 C 6,4 C 14,0 C 85 % 1022,1 hPa 0,0 l/m 17,8 km/h (3 Bft) S-SO45 150 0 min 0 lux 0 W/m
27.10.2014 23:39 9,1 C 6,4 C 14,0 C 85 % 1022,1 hPa 0,0 l/m 18,8 km/h (3 Bft) S-SO45 155 0 min 0 lux 0 W/m
27.10.2014 23:44 9,1 C 6,4 C 14,0 C 85 % 1022,1 hPa 0,0 l/m 18,8 km/h (3 Bft) S-SO45 155 0 min 0 lux 0 W/m
27.10.2014 23:50 9,1 C 6,5 C 14,0 C 85 % 1022,1 hPa 0,0 l/m 20,8 km/h (4 Bft) S-SO45 160 0 min 0 lux 0 W/m
27.10.2014 23:55 9,0 C 6,5 C 14,0 C 85 % 1022,1 hPa 0,0 l/m 17,5 km/h (3 Bft) S-SO45 160 0 min 0 lux 0 W/m
27.10.2014 23:59 9,0 C 6,5 C 14,0 C 85 % 1022,1 hPa 0,0 l/m 24,8 km/h (4 Bft) S45 170 0 min 0 lux 0 W/m
_ Min-Zeit 23:55 23:34 05:54 11:35 18:34 - 06:49 - - - - -
Minimum _ 9,0 C 6,4 C 13,7 C 71 % 1022,0 hPa - 0,0 km/h (0 Bft) - - - - -
_ Max-Zeit 12:44 12:39 13:04 18:39 07:44 00:05 23:59 - - 09:30 12:29 12:29
Maximum _ 15,7 C 32,5 C 15,0 C 85 % 1025,0 hPa 0,0 l/m 24,8 km/h
S (4 Bft)
- - 6 min 45,0 klux 308 W/m
Durchschnitt _ 12,2 C 14,3 C 14,2 C 81 % 1023,5 hPa #0,0 l/m 10,6 km/h (2 Bft) S-SO - #4:00 h 9,0 klux 151 W/m